Regional Weather Roundup
Issued by NWS Newport/Morehead, NC

Current Version | Previous Version | Text Only | Print | Product List | Glossary On
Versions: 1 2 3 4 5 6 7 8 9 10 11 12 13 14 15 16 17 18 19 20 21 22 23 24 25 26 27 28 29 30 31 32 33 34 35 36 37 38 39 40 41 42 43 44 45 46 47 48 49 50
000
ASUS42 KMHX 040424
RWRMHX
WEATHER ROUNDUP FOR EASTERN NORTH CAROLINA
NATIONAL WEATHER SERVICE NEWPORT/MOREHEAD CITY NC
1200 AM EDT MON MAY 04 2015

NOTE: "FAIR" INDICATES FEW OR NO CLOUDS BELOW 12,000 FEET
WITH NO SIGNIFICANT WEATHER AND/OR OBSTRUCTIONS TO VISIBILITY

NCZ015>017-031-032-045>047-102-103-040500-
NORTH COAST

CITY           SKY/WX    TMP DP  RH WIND       PRES   REMARKS
EDENTON        CLEAR     64  48  56 SW12      30.23R
ELIZABETH CITY PTCLDY    64  51  62 SW9       30.22R
KITTY HAWK     CLEAR     63  50  63 SW5       30.22R
MANTEO         PTCLDY    62  52  71 S6        30.24S

$$

NCZ045>047-081-094-103-104-040500-
CENTRAL COAST

CITY           SKY/WX    TMP DP  RH WIND       PRES   REMARKS
FRISCO         PTCLDY    60  54  80 W7        30.25R
SWANQUARTER      N/A     64 N/A N/A SW6       30.21S

$$

NCZ095-097-098-100-101-040500-
SOUTHERN COAST

CITY           SKY/WX    TMP DP  RH WIND       PRES   REMARKS
BEAUFORT       PTCLDY    61  57  87 S5        30.25S
CEDAR ISLAND     N/A     63 N/A N/A SW5       30.30R
JACKSONVILLE   CLEAR     56  53  90 CALM      30.25R
PINEY ISLAND   CLOUDY   N/A N/A N/A S6        30.25R
WILMINGTON     CLEAR     58  53  84 CALM      30.25R


$$

NCZ011>013-027>030-043-044-078>080-089-090>093-098-040500-
COASTAL PLAIN

CITY           SKY/WX    TMP DP  RH WIND       PRES   REMARKS
AHOSKIE        CLEAR     60  47  62 S5        30.22R
CLINTON        CLEAR     58  47  67 CALM      30.26R
ELIZABETHTOWN  CLEAR     60  51  73 CALM      30.24S
GOLDSBORO      CLEAR     61  46  57 CALM      30.22R
GREENVILLE     CLEAR     59  48  67 S6        30.24S
HAVELOCK       CLEAR     58  54  86 SW5       30.26R
KENANSVILLE    CLEAR     54  48  80 CALM      30.26R
KINSTON        CLEAR     61  48  61 S6        30.25S
NEW BERN       CLEAR     58  51  78 CALM      30.26R
RICHLANDS      CLEAR     52  46  82 CALM      30.26S
ROCKY MOUNT    CLEAR     59  47  64 S5        30.23R
WASHINGTON     CLEAR     61  47  60 S3        30.25S
WHITEVILLE     CLEAR     56  53  87 CALM      30.24S

$$

AMZ130-135-150-152-154-156-158-170-250-252-270-ANZ085-086-088-633-658-670-040500-
MARINE OBSERVATIONS

STATION/POSITION TIME  TEMP    WIND        PRES    WAVE   SWELL
                       AIR SEA DIR/SP/G            HT/PER HT/PER
                 (UTC) (F)     (DEG/KT/KT) (MB)    (FT/S) (FT/S)
CHESAPEAKE LIGHT 0400   64     210/ 18/ 18 1022.9
64 E VA BEACH    0350   62 62  230/ 12/ 16 1022.6    5/10   5/10
DUCK             0300   66 56  200/ 12/ 14 1022.0
2 E DUCK         0311      56                N/A     4/12   2/12
OREGON INLET     0300   64 65  210/ 10/ 11 1023.5
13E OREGON INLT  0400      53                N/A     4/11   2/11
HATTERAS CG      0306   64 63  240/  5/  7 1023.6
DIAMOND BUOY     0350   63 60  270/  6/  8 1024.2    4/12   3/12
CAPE LOOKOUT     0400   66     190/  4/  5 1024.3
BEAUFORT LAB     0306   66 64  220/  4/  5 1023.3
27 SE WRIGHTSVLE 0400   69 71  190/ 12/ 14   N/A
5 SE WRIGHTSVLE  0308   69 67  200/  6/  8 1024.1
225 S CAPE HAT   0350   68 70   80/ 10/ 12 1024.8    7/13   7/13
41 SE CHARLESTON 0350   73 73  140/ 12/ 14 1023.6    2/10   2/10

$$


USA.gov is the U.S. government's official web portal to all federal, state and local government web resources and services.